This is the latest recevied weather packets stored in our database for station/object AF5AA. If no packets are shown the sender has not sent any weather packets the latest 10 day(s).
| Time | Temp. | Humidity | Pressure | Rain* | Wind** | Luminosity | Snow |
|---|---|---|---|---|---|---|---|
| 1777727627 | 11.11° C | 99% | 1019.9 hPa | 0 mm | - | 20 W/m² | - |
| 1777727323 | 11.11° C | 99% | 1019.9 hPa | 0 mm | - | 15 W/m² | - |
| 1777727021 | 10.56° C | 99% | 1019.8 hPa | 0 mm | - | 22 W/m² | - |
| 1777726718 | 10.56° C | 99% | 1019.6 hPa | 0 mm | - | 15 W/m² | - |
| 1777726416 | 10.56° C | 99% | 1019.7 hPa | 0 mm | - | 16 W/m² | - |
| 1777726112 | 10° C | 99% | 1019.6 hPa | 0 mm | - | 13 W/m² | - |
| 1777725809 | 10° C | 99% | 1019.5 hPa | 0 mm | - | 18 W/m² | - |
| 1777725507 | 10° C | 99% | 1019.5 hPa | 0 mm | - | 11 W/m² | - |
| 1777725204 | 10° C | 99% | 1019.6 hPa | 0 mm | - | 11 W/m² | - |
| 1777724901 | 9.44° C | 99% | 1019.5 hPa | 0 mm | - | 9 W/m² | - |
| 1777724597 | 9.44° C | 99% | 1019.4 hPa | 0 mm | - | 9 W/m² | - |
| 1777724296 | 9.44° C | 99% | 1019 hPa | 0 mm | - | 8 W/m² | - |
| 1777723992 | 9.44° C | 99% | 1019.2 hPa | 0 mm | - | 7 W/m² | - |
| 1777723689 | 9.44° C | 99% | 1019 hPa | 0 mm | - | 6 W/m² | - |
| 1777723386 | 9.44° C | 99% | 1019 hPa | 0 mm | - | 5 W/m² | - |
| 1777723084 | 9.44° C | 99% | 1019 hPa | 0 mm | - | 5 W/m² | - |
| 1777722781 | 9.44° C | 99% | 1018.9 hPa | 0 mm | - | 4 W/m² | - |
| 1777722476 | 9.44° C | 99% | 1018.8 hPa | 0 mm | - | 3 W/m² | - |
| 1777722173 | 9.44° C | 99% | 1018.6 hPa | 0 mm | - | 2 W/m² | - |
| 1777721870 | 9.44° C | 99% | 1018.7 hPa | 0 mm | - | 1 W/m² | - |
| 1777721568 | 9.44° C | 99% | 1018.4 hPa | 0 mm | - | 1 W/m² | - |
| 1777721266 | 9.44° C | 99% | 1018.3 hPa | 0 mm | - | 0 W/m² | - |
| 1777720963 | 10° C | 99% | 1018.3 hPa | 0 mm | - | 0 W/m² | - |
| 1777720660 | 10° C | 99% | 1018.1 hPa | 0 mm | - | 0 W/m² | - |
| 1777720358 | 10° C | 99% | 1018.2 hPa | 0 mm | - | 0 W/m² | - |
* Rain latest hour (hover to see other rain measurements)
** Current wind speed in m/s (hover to see current wind gust speed)